Flag for Libya Weather past 2 weeks in Tripoli, Libya

Now
68 °F

Mild.


Feels Like: 68 °F
Forecast: 61 / 68 °F
Wind: 5 mph from Southwest

Location: Tripoli International Airport


UV Index: 7 (High)

Visibility: N/A


Pressure: 30.04 "Hg

Humidity: 38%

Dew point: 41 °F

Location of TripoliLocation

Historic Weather in Tripoli

°F

Tripoli temperature yesterday

Maximum temperature yesterday: 75 °F (at 3:50 PM)
Minimum temperature yesterday: 55 °F (at 5:50 AM)
Average temperature yesterday: 66 °F

Past Weeks' High & Low Weather Summary

 TemperatureHumidityPressure
High102 °F (Apr 20, 2:50 PM)94% (Apr 11, 2:50 AM)30.12 "Hg (Apr 11, 2:50 AM)
Low46 °F (Apr 18, 5:20 AM)8% (Apr 20, 4:50 PM)29.47 "Hg (Apr 22, 4:50 PM)
Average67 °F55%29.94 "Hg
* Reported Apr 10 8:50 AM — Apr 25 8:50 AM, Tripoli, Weather by CustomWeather, © 2014

Note: Actual official high and low records may vary slightly from our data, if they occured in-between our weather recording intervals... More about our weather records

Advertising

Historic Weather Conditions — Data for Previous 24 hours

 ConditionsComfort  
Time TempWeatherWind HumidityBarometerVisibility
8:50 AM
Apr 25
68 °FMild.5 mph38%30.04 "HgN/A
8:20 AM63 °FSunny.6 mph49%30.04 "Hg10 mi
7:50 AM55 °FSunny.5 mph67%30.04 "Hg10 mi
7:20 AM52 °FSunny.No wind77%30.04 "Hg10 mi
6:50 AM48 °FSunny.No wind82%30.04 "Hg10 mi
6:20 AM48 °FClear.No wind87%30.01 "Hg10 mi
5:50 AM48 °FClear.No wind87%30.01 "Hg10 mi
5:20 AM50 °FClear.5 mph82%30.01 "Hg10 mi
4:50 AM50 °FClear.5 mph82%30.01 "Hg10 mi
4:20 AM52 °FClear.5 mph82%30.01 "Hg10 mi
3:50 AM52 °FClear.5 mph82%30.04 "Hg10 mi
3:20 AM50 °FClear.5 mph88%30.07 "Hg10 mi
2:50 AM52 °FClear.No wind88%30.04 "Hg10 mi
2:20 AM54 °FClear.No wind82%30.04 "Hg10 mi
1:20 AM54 °FClear.3 mph82%30.07 "Hg10 mi
12:50 AM54 °FClear.5 mph82%30.07 "Hg10 mi
12:20 AM55 °FClear.No wind82%30.07 "Hg10 mi
11:50 PM
Apr 24
55 °FPassing clouds.2 mph77%30.07 "HgN/A
11:20 PM57 °FClear.2 mph77%30.09 "Hg10 mi
10:50 PM57 °FClear.5 mph77%30.09 "Hg10 mi
10:20 PM59 °FClear.No wind77%30.09 "Hg10 mi
9:50 PM61 °FClear.3 mph72%30.09 "Hg10 mi
9:20 PM61 °FClear.5 mph72%30.09 "Hg10 mi
8:50 PM61 °FClear.2 mph72%30.09 "Hg10 mi
7:50 PM64 °FClear.6 mph60%30.07 "Hg10 mi
7:20 PM68 °FSunny.10 mph53%30.07 "Hg10 mi
6:50 PM70 °FSunny.6 mph46%30.07 "Hg10 mi
6:20 PM72 °FPassing clouds.7 mph44%30.07 "HgN/A
5:50 PM73 °FPassing clouds.8 mph44%30.07 "HgN/A
5:20 PM73 °FPassing clouds.12 mph44%30.07 "HgN/A
4:50 PM73 °FPassing clouds.8 mph41%30.07 "HgN/A
4:20 PM73 °FPassing clouds.16 mph44%30.07 "HgN/A
3:50 PM75 °FPassing clouds.14 mph39%30.07 "HgN/A
3:20 PM73 °FPassing clouds.14 mph44%30.07 "HgN/A
2:10 PM73 °FPassing clouds.16 mph44%30.09 "HgN/A
1:20 PM73 °FScattered clouds.15 mph47%30.12 "HgN/A
12:50 PM73 °FScattered clouds.14 mph47%30.12 "HgN/A
12:20 PM73 °FPartly sunny.12 mph50%30.12 "HgN/A
11:50 AM73 °FPartly sunny.15 mph50%30.12 "HgN/A
11:20 AM72 °FPartly sunny.12 mph53%30.12 "HgN/A
Weather by CustomWeather, © 2014

See weather overview